Location: Cactus School
(34.5700°N, 118.0931°W)
Time: 08:26:17
(UTC-07:00)

S-56A Canister/Altair - Pass Details

Date: 22 April 2024
Orbit: 638 x 2488 km, 38.9° (Epoch: 29 May)

Event Time Altitude Azimuth Distance (km) Brightness Sun altitude
Rises 01:24:12 0° 273° (W) 4,995 11.6 -42.4°
Enters shadow 01:24:53 - 271° (W) 4,887 11.5 -42.3°
Reaches altitude 10° 01:29:26 10° 252° (WSW) 4,370 - -42.1°
Maximum altitude 01:35:10 15° 223° (SW) 4,313 - -41.8°
Drops below altitude 10° 01:41:36 10° 196° (SSW) 4,961 - -41.5°
Sets 01:48:31 0° 176° (S) 6,124 - -41.1°
